Time,TemperatureF,DewpointF,PressureIn,WindDirection,WindDirectionDegrees,WindSpeedMPH,WindSpeedGustMPH,Humidity,HourlyPrecipIn,Conditions,Clouds,dailyrainin,SoftwareType,DateUTC
2013-01-20 00:04:00,38.2,31.3,19.01,SE,141,0.0,0.0,76,0.00,,,0.00,Wunderground v.1.15,2013-01-20 06:04:00,
2013-01-20 00:10:00,37.9,31.0,19.01,SE,141,0.0,0.0,76,0.00,,,0.00,Wunderground v.1.15,2013-01-20 06:10:00,
2013-01-20 00:15:00,37.7,30.8,17.73,SE,141,0.0,0.0,76,0.00,,,0.00,Wunderground v.1.15,2013-01-20 06:15:00,
2013-01-20 00:20:00,37.6,31.0,17.73,SE,141,0.0,0.0,77,0.00,,,0.00,Wunderground v.1.15,2013-01-20 06:20:00,
2013-01-20 00:25:00,37.4,30.8,17.73,SE,141,0.0,0.0,77,0.00,,,0.00,Wunderground v.1.15,2013-01-20 06:25:00,
2013-01-20 00:31:00,37.2,31.0,17.73,SE,141,0.0,0.0,78,0.00,,,0.00,Wunderground v.1.15,2013-01-20 06:31:00,
2013-01-20 00:37:00,37.0,30.8,17.73,SE,141,0.0,0.0,78,0.00,,,0.00,Wunderground v.1.15,2013-01-20 06:37:00,
2013-01-20 00:42:00,36.8,30.6,17.73,SE,141,0.0,0.0,78,0.00,,,0.00,Wunderground v.1.15,2013-01-20 06:42:00,
2013-01-20 00:48:00,36.5,30.3,17.73,SE,141,0.0,0.0,78,0.00,,,0.00,Wunderground v.1.15,2013-01-20 06:48:00,
2013-01-20 00:53:00,36.1,29.9,17.73,SE,141,0.0,0.0,78,0.00,,,0.00,Wunderground v.1.15,2013-01-20 06:53:00,
2013-01-20 00:58:00,35.9,29.7,17.73,SE,141,0.0,0.0,78,0.00,,,0.00,Wunderground v.1.15,2013-01-20 06:58:00,
2013-01-20 01:04:00,35.6,29.4,17.73,SE,141,0.0,0.0,78,0.00,,,0.00,Wunderground v.1.15,2013-01-20 07:04:00,
2013-01-20 01:09:00,35.3,29.1,17.73,SE,141,0.0,0.0,78,0.00,,,0.00,Wunderground v.1.15,2013-01-20 07:09:00,
2013-01-20 01:14:00,35.1,28.9,17.73,SE,141,0.0,0.0,78,0.00,,,0.00,Wunderground v.1.15,2013-01-20 07:14:00,
2013-01-20 01:20:00,34.8,28.6,17.73,SE,141,0.0,0.0,78,0.00,,,0.00,Wunderground v.1.15,2013-01-20 07:20:00,
2013-01-20 01:25:00,34.4,28.2,17.73,SE,141,0.0,0.0,78,0.00,,,0.00,Wunderground v.1.15,2013-01-20 07:25:00,
2013-01-20 01:30:00,34.4,28.2,17.73,SE,141,0.0,0.0,78,0.00,,,0.00,Wunderground v.1.15,2013-01-20 07:30:00,
2013-01-20 01:35:00,34.2,28.4,17.73,SE,141,0.0,0.0,79,0.00,,,0.00,Wunderground v.1.15,2013-01-20 07:35:00,
2013-01-20 01:41:00,33.9,28.1,17.73,SE,141,0.0,0.0,79,0.00,,,0.00,Wunderground v.1.15,2013-01-20 07:41:00,
2013-01-20 01:46:00,33.7,27.9,17.73,SE,141,0.0,0.0,79,0.00,,,0.00,Wunderground v.1.15,2013-01-20 07:46:00,
2013-01-20 01:52:00,33.5,27.7,17.73,SE,141,0.0,0.0,79,0.00,,,0.00,Wunderground v.1.15,2013-01-20 07:52:00,
2013-01-20 01:57:00,33.3,27.5,17.73,SE,141,0.0,0.0,79,0.00,,,0.00,Wunderground v.1.15,2013-01-20 07:57:00,
2013-01-20 02:02:00,33.1,27.3,17.73,SE,141,0.0,0.0,79,0.00,,,0.00,Wunderground v.1.15,2013-01-20 08:02:00,
2013-01-20 02:07:00,33.0,27.5,17.73,SE,141,0.0,0.0,80,0.00,,,0.00,Wunderground v.1.15,2013-01-20 08:07:00,
2013-01-20 02:12:00,32.8,27.3,16.85,SE,141,0.0,0.0,80,0.00,,,0.00,Wunderground v.1.15,2013-01-20 08:12:00,
2013-01-20 02:17:00,32.7,27.5,16.85,SE,141,0.0,0.0,81,0.00,,,0.00,Wunderground v.1.15,2013-01-20 08:17:00,
2013-01-20 02:22:00,32.7,27.8,16.85,SE,141,0.0,0.0,82,0.00,,,0.00,Wunderground v.1.15,2013-01-20 08:22:00,
2013-01-20 02:27:00,32.9,28.0,16.85,SE,141,0.0,0.0,82,0.00,,,0.00,Wunderground v.1.15,2013-01-20 08:27:00,
2013-01-20 02:32:00,33.0,28.4,16.85,SE,141,0.0,0.0,83,0.00,,,0.00,Wunderground v.1.15,2013-01-20 08:32:00,
2013-01-20 02:37:00,33.1,28.8,16.85,SE,141,0.0,0.0,84,0.00,,,0.00,Wunderground v.1.15,2013-01-20 08:37:00,
2013-01-20 02:42:00,33.3,29.0,16.85,SE,141,0.0,0.0,84,0.00,,,0.00,Wunderground v.1.15,2013-01-20 08:42:00,
2013-01-20 02:47:00,33.4,29.1,16.85,SE,141,0.0,0.0,84,0.00,,,0.00,Wunderground v.1.15,2013-01-20 08:47:00,
2013-01-20 02:52:00,33.4,29.1,16.85,SE,141,0.0,0.0,84,0.00,,,0.00,Wunderground v.1.15,2013-01-20 08:52:00,
2013-01-20 02:57:00,33.4,29.1,17.59,SE,141,0.0,0.0,84,0.00,,,0.00,Wunderground v.1.15,2013-01-20 08:57:00,
2013-01-20 03:02:00,33.4,29.4,17.59,SE,141,0.0,0.0,85,0.00,,,0.00,Wunderground v.1.15,2013-01-20 09:02:00,
2013-01-20 03:07:00,33.4,29.4,17.59,SE,141,0.0,0.0,85,0.00,,,0.00,Wunderground v.1.15,2013-01-20 09:07:00,
2013-01-20 03:12:00,33.5,29.5,17.59,SE,141,0.0,0.0,85,0.00,,,0.00,Wunderground v.1.15,2013-01-20 09:12:00,
2013-01-20 03:17:00,33.5,29.8,17.59,SE,141,0.0,0.0,86,0.00,,,0.00,Wunderground v.1.15,2013-01-20 09:17:00,
2013-01-20 03:22:00,33.7,30.0,17.59,SE,141,0.0,0.0,86,0.00,,,0.00,Wunderground v.1.15,2013-01-20 09:22:00,
2013-01-20 03:27:00,33.7,30.0,17.59,SE,141,0.0,0.0,86,0.00,,,0.00,Wunderground v.1.15,2013-01-20 09:27:00,
2013-01-20 03:32:00,33.6,29.9,16.44,SE,141,0.0,0.0,86,0.00,,,0.00,Wunderground v.1.15,2013-01-20 09:32:00,
2013-01-20 03:37:00,33.5,29.8,16.44,SE,141,0.0,0.0,86,0.00,,,0.00,Wunderground v.1.15,2013-01-20 09:37:00,
2013-01-20 03:42:00,33.5,29.5,16.44,SE,141,0.0,0.0,85,0.00,,,0.00,Wunderground v.1.15,2013-01-20 09:42:00,
2013-01-20 03:47:00,33.4,29.4,16.88,SE,141,0.0,0.0,85,0.00,,,0.00,Wunderground v.1.15,2013-01-20 09:47:00,
2013-01-20 03:52:00,33.3,29.3,16.88,SE,141,0.0,0.0,85,0.00,,,0.00,Wunderground v.1.15,2013-01-20 09:52:00,
2013-01-20 03:57:00,33.1,29.1,16.88,SE,141,0.0,0.0,85,0.00,,,0.00,Wunderground v.1.15,2013-01-20 09:57:00,
2013-01-20 04:02:00,33.0,29.0,16.88,SE,141,0.0,0.0,85,0.00,,,0.00,Wunderground v.1.15,2013-01-20 10:02:00,
2013-01-20 04:07:00,32.8,28.8,16.88,SE,141,0.0,0.0,85,0.00,,,0.00,Wunderground v.1.15,2013-01-20 10:07:00,
2013-01-20 04:12:00,32.5,28.2,16.88,SE,141,0.0,0.0,84,0.00,,,0.00,Wunderground v.1.15,2013-01-20 10:12:00,
2013-01-20 04:17:00,32.3,28.0,16.88,SE,141,0.0,0.0,84,0.00,,,0.00,Wunderground v.1.15,2013-01-20 10:17:00,
2013-01-20 04:22:00,32.1,27.8,16.88,SE,141,0.0,0.0,84,0.00,,,0.00,Wunderground v.1.15,2013-01-20 10:22:00,
2013-01-20 04:27:00,31.9,27.6,16.88,SE,141,0.0,0.0,84,0.00,,,0.00,Wunderground v.1.15,2013-01-20 10:27:00,
2013-01-20 04:32:00,31.7,27.4,16.88,SE,141,0.0,0.0,84,0.00,,,0.00,Wunderground v.1.15,2013-01-20 10:32:00,
2013-01-20 04:37:00,31.5,27.2,16.88,SE,141,0.0,0.0,84,0.00,,,0.00,Wunderground v.1.15,2013-01-20 10:37:00,
2013-01-20 04:42:00,31.3,27.0,16.88,SE,141,0.0,0.0,84,0.00,,,0.00,Wunderground v.1.15,2013-01-20 10:42:00,
2013-01-20 04:47:00,31.2,26.9,16.88,SE,141,0.0,0.0,84,0.00,,,0.00,Wunderground v.1.15,2013-01-20 10:47:00,
2013-01-20 04:52:00,31.1,26.8,16.88,SE,141,0.0,0.0,84,0.00,,,0.00,Wunderground v.1.15,2013-01-20 10:52:00,
2013-01-20 04:57:00,31.0,26.7,16.88,SE,141,0.0,0.0,84,0.00,,,0.00,Wunderground v.1.15,2013-01-20 10:57:00,
2013-01-20 05:02:00,30.9,26.6,17.33,SE,141,0.0,0.0,84,0.00,,,0.00,Wunderground v.1.15,2013-01-20 11:02:00,
2013-01-20 05:07:00,30.8,26.5,17.33,SE,141,0.0,0.0,84,0.00,,,0.00,Wunderground v.1.15,2013-01-20 11:07:00,
2013-01-20 05:12:00,30.7,26.4,17.33,SE,141,0.0,0.0,84,0.00,,,0.00,Wunderground v.1.15,2013-01-20 11:12:00,
2013-01-20 05:17:00,30.5,26.2,17.33,SE,141,0.0,0.0,84,0.00,,,0.00,Wunderground v.1.15,2013-01-20 11:17:00,
2013-01-20 05:22:00,30.4,26.1,17.33,SE,141,0.0,0.0,84,0.00,,,0.00,Wunderground v.1.15,2013-01-20 11:22:00,
2013-01-20 05:27:00,30.2,25.9,17.33,SE,141,0.0,0.0,84,0.00,,,0.00,Wunderground v.1.15,2013-01-20 11:27:00,
2013-01-20 05:33:00,30.1,25.8,17.33,SE,141,0.0,0.0,84,0.00,,,0.00,Wunderground v.1.15,2013-01-20 11:33:00,
2013-01-20 05:38:00,29.9,25.7,17.33,SE,141,0.0,0.0,84,0.00,,,0.00,Wunderground v.1.15,2013-01-20 11:38:00,
2013-01-20 05:43:00,29.8,25.6,17.33,SE,141,0.0,0.0,84,0.00,,,0.00,Wunderground v.1.15,2013-01-20 11:43:00,
2013-01-20 05:48:00,29.7,25.5,17.33,SE,141,0.0,0.0,84,0.00,,,0.00,Wunderground v.1.15,2013-01-20 11:48:00,
2013-01-20 05:53:00,29.6,25.4,17.33,SE,141,0.0,0.0,84,0.00,,,0.00,Wunderground v.1.15,2013-01-20 11:53:00,
2013-01-20 05:58:00,29.5,25.3,17.33,SE,141,0.0,0.0,84,0.00,,,0.00,Wunderground v.1.15,2013-01-20 11:58:00,
2013-01-20 06:03:00,29.4,25.2,17.33,SE,141,0.0,0.0,84,0.00,,,0.00,Wunderground v.1.15,2013-01-20 12:03:00,
2013-01-20 06:08:00,29.3,25.1,17.33,SE,141,0.0,0.0,84,0.00,,,0.00,Wunderground v.1.15,2013-01-20 12:08:00,
2013-01-20 06:13:00,29.2,25.0,17.33,SE,141,0.0,0.0,84,0.00,,,0.00,Wunderground v.1.15,2013-01-20 12:13:00,
2013-01-20 06:18:00,29.0,24.8,17.33,SE,141,0.0,0.0,84,0.00,,,0.00,Wunderground v.1.15,2013-01-20 12:18:00,
2013-01-20 06:23:00,28.9,24.7,17.33,SE,141,0.0,0.0,84,0.00,,,0.00,Wunderground v.1.15,2013-01-20 12:23:00,
2013-01-20 06:28:00,28.8,24.6,17.33,SE,141,0.0,0.0,84,0.00,,,0.00,Wunderground v.1.15,2013-01-20 12:28:00,
2013-01-20 06:33:00,28.7,24.5,17.33,SE,141,0.0,0.0,84,0.00,,,0.00,Wunderground v.1.15,2013-01-20 12:33:00,
2013-01-20 06:38:00,28.6,24.4,17.33,SE,141,0.0,0.0,84,0.00,,,0.00,Wunderground v.1.15,2013-01-20 12:38:00,
2013-01-20 06:43:00,28.5,24.3,17.33,SE,141,0.0,0.0,84,0.00,,,0.00,Wunderground v.1.15,2013-01-20 12:43:00,
2013-01-20 06:48:00,28.4,24.5,17.33,SE,141,0.0,0.0,85,0.00,,,0.00,Wunderground v.1.15,2013-01-20 12:48:00,
2013-01-20 06:53:00,28.3,24.4,17.33,SE,141,0.0,0.0,85,0.00,,,0.00,Wunderground v.1.15,2013-01-20 12:53:00,
2013-01-20 06:58:00,28.1,24.2,17.33,SE,141,0.0,0.0,85,0.00,,,0.00,Wunderground v.1.15,2013-01-20 12:58:00,
2013-01-20 07:03:00,28.0,24.1,17.33,SE,141,0.0,0.0,85,0.00,,,0.00,Wunderground v.1.15,2013-01-20 13:03:00,
2013-01-20 07:08:00,27.9,24.0,17.33,SE,141,0.0,0.0,85,0.00,,,0.00,Wunderground v.1.15,2013-01-20 13:08:00,
2013-01-20 07:13:00,27.8,23.9,17.33,SE,141,0.0,0.0,85,0.00,,,0.00,Wunderground v.1.15,2013-01-20 13:13:00,
2013-01-20 07:18:00,27.8,23.9,17.33,SE,141,0.0,0.0,85,0.00,,,0.00,Wunderground v.1.15,2013-01-20 13:18:00,
2013-01-20 07:23:00,27.7,23.8,17.33,SE,141,0.0,0.0,85,0.00,,,0.00,Wunderground v.1.15,2013-01-20 13:23:00,
2013-01-20 07:28:00,27.6,23.7,17.33,SE,141,0.0,0.0,85,0.00,,,0.00,Wunderground v.1.15,2013-01-20 13:28:00,
2013-01-20 07:33:00,27.4,23.5,17.33,SE,141,0.0,0.0,85,0.00,,,0.00,Wunderground v.1.15,2013-01-20 13:33:00,
2013-01-20 07:38:00,27.3,23.4,17.33,SE,141,0.0,0.0,85,0.00,,,0.00,Wunderground v.1.15,2013-01-20 13:38:00,
2013-01-20 07:43:00,27.2,23.3,17.33,SE,141,0.0,0.0,85,0.00,,,0.00,Wunderground v.1.15,2013-01-20 13:43:00,
2013-01-20 07:48:00,27.1,23.2,17.33,SE,141,0.0,0.0,85,0.00,,,0.00,Wunderground v.1.15,2013-01-20 13:48:00,
2013-01-20 07:54:00,27.0,23.1,17.33,SE,141,0.0,0.0,85,0.00,,,0.00,Wunderground v.1.15,2013-01-20 13:54:00,
2013-01-20 07:58:00,27.0,23.1,17.33,SE,141,0.0,0.0,85,0.00,,,0.00,Wunderground v.1.15,2013-01-20 13:58:00,
2013-01-20 08:03:00,27.0,23.4,17.33,SE,141,0.0,0.0,86,0.00,,,0.00,Wunderground v.1.15,2013-01-20 14:03:00,
2013-01-20 08:09:00,27.1,23.5,17.33,SE,141,0.0,0.0,86,0.00,,,0.00,Wunderground v.1.15,2013-01-20 14:09:00,
2013-01-20 08:14:00,27.2,23.6,17.33,SE,141,0.0,0.0,86,0.00,,,0.00,Wunderground v.1.15,2013-01-20 14:14:00,
2013-01-20 08:19:00,27.4,24.0,17.33,SE,141,0.0,0.0,87,0.00,,,0.00,Wunderground v.1.15,2013-01-20 14:19:00,
2013-01-20 08:24:00,27.7,24.3,17.33,SE,141,0.0,0.0,87,0.00,,,0.00,Wunderground v.1.15,2013-01-20 14:24:00,
2013-01-20 08:29:00,29.0,25.9,17.33,SE,141,0.0,1.0,88,0.00,,,0.00,Wunderground v.1.15,2013-01-20 14:29:00,
2013-01-20 08:34:00,30.4,27.5,17.33,SE,141,0.0,0.0,89,0.00,,,0.00,Wunderground v.1.15,2013-01-20 14:34:00,
2013-01-20 08:39:00,32.6,30.0,17.33,North,350,0.0,2.0,90,0.00,,,0.00,Wunderground v.1.15,2013-01-20 14:39:00,
2013-01-20 08:44:00,34.4,31.5,17.33,North,350,0.0,1.0,89,0.00,,,0.00,Wunderground v.1.15,2013-01-20 14:44:00,
2013-01-20 08:49:00,36.1,32.3,17.33,North,349,0.0,1.0,86,0.00,,,0.00,Wunderground v.1.15,2013-01-20 14:49:00,
2013-01-20 08:54:00,37.6,32.9,17.33,North,350,0.0,0.0,83,0.00,,,0.00,Wunderground v.1.15,2013-01-20 14:54:00,
2013-01-20 08:59:00,39.2,33.5,17.33,North,349,0.0,1.0,80,0.00,,,0.00,Wunderground v.1.15,2013-01-20 14:59:00,
2013-01-20 09:04:00,40.3,33.7,17.33,North,350,0.0,1.0,77,0.00,,,0.00,Wunderground v.1.15,2013-01-20 15:04:00,
2013-01-20 09:09:00,41.1,33.4,17.33,North,350,0.0,1.0,74,0.00,,,0.00,Wunderground v.1.15,2013-01-20 15:09:00,
2013-01-20 09:14:00,41.6,32.9,17.33,North,349,0.0,0.0,71,0.00,,,0.00,Wunderground v.1.15,2013-01-20 15:14:00,
2013-01-20 09:19:00,42.2,32.8,17.33,North,350,0.0,1.0,69,0.00,,,0.00,Wunderground v.1.15,2013-01-20 15:19:00,
2013-01-20 09:24:00,42.9,33.4,17.33,SSE,147,0.0,1.0,69,0.00,,,0.00,Wunderground v.1.15,2013-01-20 15:24:00,
2013-01-20 09:29:00,43.5,32.9,17.33,SE,140,1.0,4.0,66,0.00,,,0.00,Wunderground v.1.15,2013-01-20 15:29:00,
2013-01-20 09:34:00,44.2,33.2,17.33,SSE,155,0.0,1.0,65,0.00,,,0.00,Wunderground v.1.15,2013-01-20 15:34:00,
2013-01-20 09:39:00,44.9,33.1,17.33,SE,132,1.0,2.0,63,0.00,,,0.00,Wunderground v.1.15,2013-01-20 15:39:00,
2013-01-20 09:44:00,45.1,32.0,20.61,East,84,0.0,2.0,60,0.00,,,0.00,Wunderground v.1.15,2013-01-20 15:44:00,
2013-01-20 09:49:00,45.6,32.5,20.61,South,191,2.0,4.0,60,0.00,,,0.00,Wunderground v.1.15,2013-01-20 15:49:00,
2013-01-20 09:54:00,46.0,31.6,20.61,East,87,1.0,4.0,57,0.00,,,0.00,Wunderground v.1.15,2013-01-20 15:54:00,
2013-01-20 10:00:00,46.5,32.1,20.61,SSW,192,1.0,1.0,57,0.00,,,0.00,Wunderground v.1.15,2013-01-20 16:00:00,
2013-01-20 10:05:00,46.7,31.4,20.61,NE,56,1.0,6.0,55,0.00,,,0.00,Wunderground v.1.15,2013-01-20 16:05:00,
2013-01-20 10:10:00,46.8,31.5,20.61,South,185,3.0,3.0,55,0.00,,,0.00,Wunderground v.1.15,2013-01-20 16:10:00,
2013-01-20 10:15:00,47.0,31.2,20.61,ENE,70,0.0,5.0,54,0.00,,,0.00,Wunderground v.1.15,2013-01-20 16:15:00,
2013-01-20 10:20:00,47.4,31.6,20.61,SSE,148,0.0,1.0,54,0.00,,,0.00,Wunderground v.1.15,2013-01-20 16:20:00,
2013-01-20 10:25:00,47.8,31.5,20.61,NW,317,5.0,5.0,53,0.00,,,0.00,Wunderground v.1.15,2013-01-20 16:25:00,
2013-01-20 10:30:00,48.2,31.4,20.61,ENE,70,0.0,1.0,52,0.00,,,0.00,Wunderground v.1.15,2013-01-20 16:30:00,
2013-01-20 10:35:00,48.6,30.8,20.61,ENE,72,1.0,7.0,50,0.00,,,0.00,Wunderground v.1.15,2013-01-20 16:35:00,
2013-01-20 10:40:00,49.0,30.7,20.61,NE,38,0.0,1.0,49,0.00,,,0.00,Wunderground v.1.15,2013-01-20 16:40:00,
2013-01-20 10:45:00,49.2,30.8,20.61,ESE,113,0.0,3.0,49,0.00,,,0.00,Wunderground v.1.15,2013-01-20 16:45:00,
2013-01-20 10:50:00,49.5,31.1,20.61,East,89,2.0,3.0,49,0.00,,,0.00,Wunderground v.1.15,2013-01-20 16:50:00,
2013-01-20 10:55:00,49.8,31.4,20.61,NE,43,1.0,3.0,49,0.00,,,0.00,Wunderground v.1.15,2013-01-20 16:55:00,
2013-01-20 11:00:00,50.3,31.8,20.61,ESE,111,0.0,1.0,49,0.00,,,0.00,Wunderground v.1.15,2013-01-20 17:00:00,
2013-01-20 11:05:00,51.1,32.6,20.61,ENE,61,0.0,3.0,49,0.00,,,0.00,Wunderground v.1.15,2013-01-20 17:05:00,
2013-01-20 11:10:00,51.5,31.9,20.61,NNE,18,0.0,0.0,47,0.00,,,0.00,Wunderground v.1.15,2013-01-20 17:10:00,
2013-01-20 11:15:00,51.4,31.3,20.61,SSE,153,1.0,2.0,46,0.00,,,0.00,Wunderground v.1.15,2013-01-20 17:15:00,
2013-01-20 11:20:00,51.8,31.7,20.61,NNE,25,0.0,0.0,46,0.00,,,0.00,Wunderground v.1.15,2013-01-20 17:20:00,
2013-01-20 11:25:00,52.1,31.9,20.61,SSE,150,0.0,1.0,46,0.00,,,0.00,Wunderground v.1.15,2013-01-20 17:25:00,
2013-01-20 11:30:00,52.5,31.8,20.61,SE,146,0.0,0.0,45,0.00,,,0.00,Wunderground v.1.15,2013-01-20 17:30:00,
2013-01-20 11:35:00,52.8,32.0,20.61,SE,128,1.0,2.0,45,0.00,,,0.00,Wunderground v.1.15,2013-01-20 17:35:00,
2013-01-20 11:40:00,53.0,32.2,20.61,SE,143,0.0,1.0,45,0.00,,,0.00,Wunderground v.1.15,2013-01-20 17:40:00,
2013-01-20 11:45:00,53.2,32.4,20.61,SE,139,0.0,3.0,45,0.00,,,0.00,Wunderground v.1.15,2013-01-20 17:45:00,
2013-01-20 11:50:00,52.9,32.1,20.61,SE,142,0.0,0.0,45,0.00,,,0.00,Wunderground v.1.15,2013-01-20 17:50:00,
2013-01-20 11:55:00,53.7,32.3,20.61,SE,144,0.0,2.0,44,0.00,,,0.00,Wunderground v.1.15,2013-01-20 17:55:00,
2013-01-20 12:00:00,53.9,31.9,20.61,East,92,0.0,0.0,43,0.00,,,0.00,Wunderground v.1.15,2013-01-20 18:00:00,
2013-01-20 12:05:00,54.2,32.7,20.61,ENE,69,0.0,1.0,44,0.00,,,0.00,Wunderground v.1.15,2013-01-20 18:05:00,
2013-01-20 12:10:00,54.4,32.3,20.61,ENE,69,0.0,1.0,43,0.00,,,0.00,Wunderground v.1.15,2013-01-20 18:10:00,
2013-01-20 12:15:00,54.3,32.3,20.61,ESE,104,0.0,3.0,43,0.00,,,0.00,Wunderground v.1.15,2013-01-20 18:15:00,
2013-01-20 12:20:00,54.3,32.8,20.61,SSE,147,1.0,2.0,44,0.00,,,0.00,Wunderground v.1.15,2013-01-20 18:20:00,
2013-01-20 12:25:00,54.9,32.2,20.61,SE,146,0.0,2.0,42,0.00,,,0.00,Wunderground v.1.15,2013-01-20 18:25:00,
2013-01-20 12:30:00,55.1,33.0,20.61,South,173,0.0,0.0,43,0.00,,,0.00,Wunderground v.1.15,2013-01-20 18:30:00,
2013-01-20 12:35:00,55.1,32.4,20.61,NE,49,0.0,1.0,42,0.00,,,0.00,Wunderground v.1.15,2013-01-20 18:35:00,
2013-01-20 12:40:00,55.9,33.7,20.61,SW,225,0.0,1.0,43,0.00,,,0.00,Wunderground v.1.15,2013-01-20 18:40:00,
2013-01-20 12:45:00,56.9,33.4,20.61,SSE,164,0.0,2.0,41,0.00,,,0.00,Wunderground v.1.15,2013-01-20 18:45:00,
2013-01-20 12:50:00,57.0,32.9,20.61,SSW,199,0.0,0.0,40,0.00,,,0.00,Wunderground v.1.15,2013-01-20 18:50:00,
2013-01-20 12:55:00,57.6,33.4,20.61,ESE,107,0.0,1.0,40,0.00,,,0.00,Wunderground v.1.15,2013-01-20 18:55:00,
2013-01-20 13:00:00,57.1,33.6,20.61,ESE,107,0.0,0.0,41,0.00,,,0.00,Wunderground v.1.15,2013-01-20 19:00:00,
2013-01-20 13:05:00,57.4,34.5,20.61,SSE,166,0.0,4.0,42,0.00,,,0.00,Wunderground v.1.15,2013-01-20 19:05:00,
2013-01-20 13:10:00,58.3,34.1,20.61,SSE,152,0.0,2.0,40,0.00,,,0.00,Wunderground v.1.15,2013-01-20 19:10:00,
2013-01-20 13:15:00,58.2,34.0,20.61,South,178,1.0,2.0,40,0.00,,,0.00,Wunderground v.1.15,2013-01-20 19:15:00,
2013-01-20 13:20:00,57.8,33.6,20.61,South,190,0.0,3.0,40,0.00,,,0.00,Wunderground v.1.15,2013-01-20 19:20:00,
2013-01-20 13:25:00,57.4,33.9,20.61,South,178,0.0,4.0,41,0.00,,,0.00,Wunderground v.1.15,2013-01-20 19:25:00,
2013-01-20 13:30:00,57.5,34.0,20.61,SSE,160,0.0,2.0,41,0.00,,,0.00,Wunderground v.1.15,2013-01-20 19:30:00,
2013-01-20 13:36:00,57.6,34.7,20.61,SE,145,1.0,3.0,42,0.00,,,0.00,Wunderground v.1.15,2013-01-20 19:36:00,
2013-01-20 13:41:00,57.7,34.7,20.61,SE,140,0.0,1.0,42,0.00,,,0.00,Wunderground v.1.15,2013-01-20 19:41:00,
2013-01-20 13:46:00,57.8,34.8,20.61,NW,318,1.0,2.0,42,0.00,,,0.00,Wunderground v.1.15,2013-01-20 19:46:00,
2013-01-20 13:51:00,57.9,34.9,20.61,SSE,162,1.0,1.0,42,0.00,,,0.00,Wunderground v.1.15,2013-01-20 19:51:00,
2013-01-20 13:56:00,58.2,35.2,20.61,South,183,0.0,6.0,42,0.00,,,0.00,Wunderground v.1.15,2013-01-20 19:56:00,
2013-01-20 14:01:00,58.4,35.4,20.61,SSW,200,2.0,3.0,42,0.00,,,0.00,Wunderground v.1.15,2013-01-20 20:01:00,
2013-01-20 14:06:00,58.5,35.5,20.61,SSE,167,0.0,3.0,42,0.00,,,0.00,Wunderground v.1.15,2013-01-20 20:06:00,
2013-01-20 14:11:00,58.6,35.6,20.61,South,170,0.0,2.0,42,0.00,,,0.00,Wunderground v.1.15,2013-01-20 20:11:00,
2013-01-20 14:16:00,58.8,35.1,19.73,SSW,200,1.0,2.0,41,0.00,,,0.00,Wunderground v.1.15,2013-01-20 20:16:00,
2013-01-20 14:21:00,59.0,35.9,19.73,SW,218,0.0,1.0,42,0.00,,,0.00,Wunderground v.1.15,2013-01-20 20:21:00,
2013-01-20 14:26:00,59.0,35.9,19.73,SE,127,0.0,4.0,42,0.00,,,0.00,Wunderground v.1.15,2013-01-20 20:26:00,
2013-01-20 14:31:00,59.0,35.9,19.73,NW,315,0.0,0.0,42,0.00,,,0.00,Wunderground v.1.15,2013-01-20 20:31:00,
2013-01-20 14:36:00,59.0,35.9,19.73,SSE,165,0.0,2.0,42,0.00,,,0.00,Wunderground v.1.15,2013-01-20 20:36:00,
2013-01-20 14:41:00,59.1,36.0,19.73,SE,131,0.0,1.0,42,0.00,,,0.00,Wunderground v.1.15,2013-01-20 20:41:00,
2013-01-20 14:46:00,59.2,35.5,19.73,SE,132,0.0,1.0,41,0.00,,,0.00,Wunderground v.1.15,2013-01-20 20:46:00,
2013-01-20 14:51:00,59.2,36.1,19.73,ESE,123,0.0,1.0,42,0.00,,,0.00,Wunderground v.1.15,2013-01-20 20:51:00,
2013-01-20 14:57:00,59.3,36.2,19.73,ESE,113,0.0,1.0,42,0.00,,,0.00,Wunderground v.1.15,2013-01-20 20:57:00,
2013-01-20 15:02:00,59.3,36.2,19.73,South,178,0.0,3.0,42,0.00,,,0.00,Wunderground v.1.15,2013-01-20 21:02:00,
2013-01-20 15:07:00,59.3,36.2,19.73,SE,126,0.0,3.0,42,0.00,,,0.00,Wunderground v.1.15,2013-01-20 21:07:00,
2013-01-20 15:12:00,59.4,36.9,19.73,SE,126,0.0,1.0,43,0.00,,,0.00,Wunderground v.1.15,2013-01-20 21:12:00,
2013-01-20 15:17:00,59.3,36.8,19.73,SE,126,0.0,1.0,43,0.00,,,0.00,Wunderground v.1.15,2013-01-20 21:17:00,
2013-01-20 15:22:00,59.4,36.9,19.73,SE,126,0.0,0.0,43,0.00,,,0.00,Wunderground v.1.15,2013-01-20 21:22:00,
2013-01-20 15:27:00,59.4,37.5,19.73,NE,46,1.0,1.0,44,0.00,,,0.00,Wunderground v.1.15,2013-01-20 21:27:00,
2013-01-20 15:32:00,59.5,37.6,19.73,NE,42,0.0,1.0,44,0.00,,,0.00,Wunderground v.1.15,2013-01-20 21:32:00,
2013-01-20 15:37:00,59.5,37.6,19.73,NW,325,0.0,3.0,44,0.00,,,0.00,Wunderground v.1.15,2013-01-20 21:37:00,
2013-01-20 15:42:00,59.5,38.1,19.73,WSW,250,0.0,1.0,45,0.00,,,0.00,Wunderground v.1.15,2013-01-20 21:42:00,
2013-01-20 15:47:00,59.5,38.1,19.73,East,85,0.0,1.0,45,0.00,,,0.00,Wunderground v.1.15,2013-01-20 21:47:00,
2013-01-20 15:52:00,59.4,37.5,19.73,East,84,0.0,1.0,44,0.00,,,0.00,Wunderground v.1.15,2013-01-20 21:52:00,
2013-01-20 15:58:00,59.3,37.9,19.73,East,85,0.0,1.0,45,0.00,,,0.00,Wunderground v.1.15,2013-01-20 21:58:00,
2013-01-20 16:03:00,59.0,37.7,19.73,SE,138,0.0,1.0,45,0.00,,,0.00,Wunderground v.1.15,2013-01-20 22:03:00,
2013-01-20 16:08:00,59.0,37.7,19.73,SE,137,0.0,1.0,45,0.00,,,0.00,Wunderground v.1.15,2013-01-20 22:08:00,
2013-01-20 16:13:00,59.0,37.7,19.73,SE,138,1.0,3.0,45,0.00,,,0.00,Wunderground v.1.15,2013-01-20 22:13:00,
2013-01-20 16:18:00,59.0,38.2,19.73,WSW,255,0.0,3.0,46,0.00,,,0.00,Wunderground v.1.15,2013-01-20 22:18:00,
2013-01-20 16:23:00,58.7,38.0,19.73,SSE,148,0.0,1.0,46,0.00,,,0.00,Wunderground v.1.15,2013-01-20 22:23:00,
2013-01-20 16:28:00,58.6,37.9,19.73,ESE,104,0.0,1.0,46,0.00,,,0.00,Wunderground v.1.15,2013-01-20 22:28:00,
2013-01-20 16:33:00,58.4,37.7,19.73,ESE,104,0.0,1.0,46,0.00,,,0.00,Wunderground v.1.15,2013-01-20 22:33:00,
2013-01-20 16:38:00,58.3,37.6,19.73,East,97,0.0,1.0,46,0.00,,,0.00,Wunderground v.1.15,2013-01-20 22:38:00,
2013-01-20 16:43:00,58.1,37.4,19.73,East,97,0.0,0.0,46,0.00,,,0.00,Wunderground v.1.15,2013-01-20 22:43:00,
2013-01-20 16:48:00,58.0,37.3,26.61,East,97,0.0,0.0,46,0.00,,,0.00,Wunderground v.1.15,2013-01-20 22:48:00,
2013-01-20 16:53:00,57.8,37.7,26.61,East,96,0.0,1.0,47,0.00,,,0.00,Wunderground v.1.15,2013-01-20 22:53:00,
2013-01-20 16:58:00,57.7,37.6,26.61,East,96,0.0,1.0,47,0.00,,,0.00,Wunderground v.1.15,2013-01-20 22:58:00,
2013-01-20 17:03:00,57.4,37.9,26.61,East,96,0.0,1.0,48,0.00,,,0.00,Wunderground v.1.15,2013-01-20 23:03:00,
2013-01-20 17:08:00,57.2,37.7,25.87,East,96,0.0,1.0,48,0.00,,,0.00,Wunderground v.1.15,2013-01-20 23:08:00,
2013-01-20 17:13:00,57.0,38.0,25.87,East,96,0.0,0.0,49,0.00,,,0.00,Wunderground v.1.15,2013-01-20 23:13:00,
2013-01-20 17:18:00,56.8,37.8,25.87,East,96,0.0,0.0,49,0.00,,,0.00,Wunderground v.1.15,2013-01-20 23:18:00,
2013-01-20 17:23:00,56.6,37.6,25.87,East,96,0.0,0.0,49,0.00,,,0.00,Wunderground v.1.15,2013-01-20 23:23:00,
2013-01-20 17:28:00,56.2,37.3,25.87,East,96,0.0,0.0,49,0.00,,,0.00,Wunderground v.1.15,2013-01-20 23:28:00,
2013-01-20 17:33:00,55.9,37.0,25.87,East,96,0.0,0.0,49,0.00,,,0.00,Wunderground v.1.15,2013-01-20 23:33:00,
2013-01-20 17:38:00,55.5,37.1,25.87,East,96,0.0,0.0,50,0.00,,,0.00,Wunderground v.1.15,2013-01-20 23:38:00,
2013-01-20 17:43:00,55.1,36.8,25.87,East,96,0.0,0.0,50,0.00,,,0.00,Wunderground v.1.15,2013-01-20 23:43:00,
2013-01-20 17:48:00,54.8,37.0,25.87,East,96,0.0,0.0,51,0.00,,,0.00,Wunderground v.1.15,2013-01-20 23:48:00,
2013-01-20 17:53:00,54.2,36.5,25.87,East,96,0.0,0.0,51,0.00,,,0.00,Wunderground v.1.15,2013-01-20 23:53:00,
2013-01-20 17:58:00,53.7,37.0,25.87,NNE,19,0.0,0.0,53,0.00,,,0.00,Wunderground v.1.15,2013-01-20 23:58:00,
2013-01-20 18:03:00,53.3,37.1,25.87,NNE,19,0.0,0.0,54,0.00,,,0.00,Wunderground v.1.15,2013-01-21 00:03:00,
2013-01-20 18:08:00,53.0,36.8,25.87,NNE,17,0.0,1.0,54,0.00,,,0.00,Wunderground v.1.15,2013-01-21 00:08:00,
2013-01-20 18:13:00,52.6,35.9,25.87,NNW,338,0.0,2.0,53,0.00,,,0.00,Wunderground v.1.15,2013-01-21 00:13:00,